Tracking 30995 objects as of 7-Jul-2025
HD Live streaming from Space Station
objects crossing your sky now

STARLINK-31521

Track STARLINK-31521 now!
10-day predictions
STARLINK-31521 is classified as:


NORAD ID: 59015
Int'l Code: 2024-036T
Perigee: 481.4 km
Apogee: 483.3 km
Inclination: 53.2 °
Period: 94.1 minutes
Semi major axis: 6853 km
RCS: Unknown
Launch date: February 23, 2024
Source: United States (US)
Launch site: AIR FORCE WESTERN TEST RANGE (AFWTR)
Your satellite tracking list
Your tracking list is empty




NASA's NSSDC Master Catalog

Two Line Element Set (TLE):
1 59015U 24036T   25187.28503250  .00000217  00000-0  19446-4 0  9991
2 59015  53.1593 142.9294 0001387  83.8313 276.2846 15.30196903 77594
Source of the keplerian elements: AFSPC